Location: Lombard
(41.8800°N, 88.0080°W)
Time: 14:04:10
(UTC-06:00)

Transit 4A - Pass Details

Date: 03 December 2023
Orbit: 870 x 973 km, 66.8° (Epoch: 03 March)

Event Time Altitude Azimuth Distance (km) Brightness Sun altitude
Rises 18:37:54 0° 164° (SSE) 3,650 10.9 -24.7°
Enters shadow 18:40:06 - 155° (SSE) 2,991 10.4 -25.2°
Reaches altitude 10° 18:41:10 10° 148° (SSE) 2,710 - -25.3°
Maximum altitude 18:45:32 20° 104° (ESE) 2,090 - -26.2°
Drops below altitude 10° 18:49:54 10° 60° (ENE) 2,710 - -27.0°
Sets 18:53:08 0° 45° (NE) 3,651 - -27.6°
